Aeroporto :
LOGIN :

Iscrizione | Disclaimer

   EN    FR    IT 

 










Sommario :    VFR   VFR Marginale   IFR   IFR Intensivo   IFR Molto Intensivo
Visibilità : 
Base nubi : 
>= 8 km
>= 3000ft
5 / 8 km
1000 / 3000 ft
1500m / 5 km
500 / 1000 ft
800 / 1500m
200 / 500 ft
< 800m
< 200 ft
Simboli :   Temporali  Nebbia  Neve Forte  Precipitazioni Forti  Vento > 20 kt
SIGMETs :   Varie  Temporali  Ghiacco  Turbolenza  Onda orograficha  Ceneri Vulcaniche






- Altitudine del aeroporto : 194 ft


EBCV - Chièvres

ULTIMO METAR :
  • 180955Z AUTO 17009KT 9999 NCD 27/19 Q1011 BLU

TAF TAF EBCV
Valido dal 18 a 10 ore il 18 a 19 ore UTC


180841Z 1810/1819 19012KT FEW030 SCT050
PROB40
TEMPO 1810/1819 20015G30KT 4000 SHRA SCT025TCU BKN030
PROB30
TEMPO 1811/1817 23020G37KT 2500 -TSRAGR FEW010 SCT020CB BKN025
BECMG 1817/1819 23012KT BY EBWM



MetMap, La meteo Aeronautica in un colpo d'occhio ! - Copyright ORBIFLY Dicembre 2007 - Disclaimer

ORBIFLY MET'MAP TEAM :

Programmazione e sviluppo : Alexandra Zaïnal
Concezione : Baudouin d'Aumeries
Aiuto per la programmazione : Marc-Olivier Méhu
Supporto tecnico e logistico : Manuel Goepfert
Aiuto per la traduzione : Arnaldo La Scala

Contatto : metmap@orbifly.com




FONTI E CREDITI :

   NOAA